Change the Weather History Date:

Wednesday, November 23, 2011

  Actual Average Record
Temperature  
Mean Temperature 54 °F -  
Max Temperature 57 °F 61 °F 68 °F (2012)
Min Temperature 50 °F 45 °F 44 °F (2013)
Degree Days  
Heating Degree Days 12    
Growing Degree Days 4 (Base 50)    
Moisture  
Dew Point 48 °F    
Average Humidity 79    
Maximum Humidity 94    
Minimum Humidity 72    
Precipitation  
Precipitation 0.00 in - - ()
Sea Level Pressure  
Sea Level Pressure 29.93 in    
Wind  
Wind Speed 12 mph (South)    
Max Wind Speed 21 mph    
Max Gust Speed 29 mph    
Visibility 9 miles    
Events      
Averages and records for this station are not official NWS values.
T = Trace of Precipitation, MM = Missing Value Source: NWS Daily Summary

Daily Weather History Graph

Daily Weather History Graph

Search for Another Location

Airport or City:

Trip Planner

Search our weather history database for the weather conditions in past years. The results will help you decide how hot, cold, wet, or windy it might be!

Date:

Astronomy

Nov. 23, 2011 Rise Set
Actual Time 6:57 AM PST 4:54 PM PST
Civil Twilight 6:29 AM PST 5:22 PM PST
Nautical Twilight 5:57 AM PST 5:54 PM PST
Astronomical Twilight 5:26 AM PST 6:26 PM PST
Moon 5:09 AM PST (11/23) 3:40 PM PST (11/23)
Length of Visible Light 10h 53m
Length of Day
9h 56m
Waning Crescent, 3% of the Moon is Illuminated
Nov 23
Waning Crescent
Nov 24
New
Dec 2
First Quarter
Dec 10
Full
Dec 17
Last Quarter

Hourly Weather History & Observations

Time (PST) Temp. Dew Point Humidity Pressure Visibility Wind Dir Wind Speed Gust Speed Precip Events Conditions
12:35 AM 50.0 °F 44.6 °F 82% 30.08 in 10.0 mi SE 9.2 mph - N/A   Partly Cloudy
12:55 AM 50.0 °F 44.6 °F 82% 30.07 in 10.0 mi SSE 9.2 mph - N/A   Partly Cloudy
1:35 AM 50.0 °F 44.6 °F 82% 30.06 in 10.0 mi SE 9.2 mph - N/A   Clear
1:55 AM 50.0 °F 44.6 °F 82% 30.06 in 10.0 mi SSE 9.2 mph - N/A   Scattered Clouds
2:15 AM 50.0 °F 46.4 °F 87% 30.06 in 10.0 mi SSE 8.1 mph - N/A   Overcast
2:35 AM 51.8 °F 46.4 °F 82% 30.05 in 10.0 mi SSE 8.1 mph - N/A   Overcast
3:15 AM 51.8 °F 46.4 °F 82% 30.04 in 10.0 mi South 5.8 mph - N/A   Overcast
3:35 AM 51.8 °F 46.4 °F 82% 30.03 in 10.0 mi South 11.5 mph - N/A   Overcast
4:15 AM 51.8 °F 46.4 °F 82% 30.01 in 10.0 mi SSE 8.1 mph - N/A   Overcast
4:35 AM 50.0 °F 44.6 °F 82% 30.00 in 10.0 mi SSE 8.1 mph - N/A   Overcast
4:55 AM 50.0 °F 44.6 °F 82% 30.00 in 10.0 mi SSE 9.2 mph - N/A   Mostly Cloudy
5:35 AM 50.0 °F 44.6 °F 82% 29.99 in 10.0 mi SSE 8.1 mph - N/A   Partly Cloudy
5:55 AM 51.8 °F 46.4 °F 82% 29.99 in 10.0 mi SSE 6.9 mph - N/A   Mostly Cloudy
6:15 AM 53.6 °F 46.4 °F 77% 29.99 in 10.0 mi SSE 8.1 mph - N/A   Overcast
6:35 AM 53.6 °F 48.2 °F 82% 29.98 in 10.0 mi SSE 9.2 mph - N/A   Overcast
6:55 AM 53.6 °F 48.2 °F 82% 29.99 in 10.0 mi SSE 9.2 mph - N/A   Overcast
7:15 AM 53.6 °F 48.2 °F 82% 29.99 in 8.0 mi SSE 9.2 mph - N/A   Overcast
7:35 AM 53.6 °F 48.2 °F 82% 29.98 in 8.0 mi SSE 9.2 mph - N/A   Overcast
7:55 AM 55.4 °F 48.2 °F 77% 29.98 in 10.0 mi South 11.5 mph - N/A   Overcast
8:15 AM 55.4 °F 48.2 °F 77% 29.98 in 10.0 mi South 13.8 mph 18.4 mph N/A   Overcast
8:35 AM 55.4 °F 48.2 °F 77% 29.97 in 10.0 mi South 15.0 mph 20.7 mph N/A   Overcast
8:55 AM 55.4 °F 48.2 °F 77% 29.96 in 9.0 mi South 15.0 mph - N/A   Overcast
9:35 AM 57.2 °F 48.2 °F 72% 29.95 in 9.0 mi South 16.1 mph 20.7 mph N/A   Mostly Cloudy
9:55 AM 55.4 °F 48.2 °F 77% 29.96 in 9.0 mi South 13.8 mph - N/A   Mostly Cloudy
10:15 AM 55.4 °F 48.2 °F 77% 29.95 in 10.0 mi South 15.0 mph - N/A   Mostly Cloudy
10:35 AM 57.2 °F 48.2 °F 72% 29.94 in 10.0 mi South 16.1 mph - N/A   Scattered Clouds
10:55 AM 57.2 °F 48.2 °F 72% 29.94 in 9.0 mi South 16.1 mph - N/A   Mostly Cloudy
11:15 AM 57.2 °F 48.2 °F 72% 29.94 in 9.0 mi South 19.6 mph 26.5 mph N/A   Mostly Cloudy
11:35 AM 57.2 °F 48.2 °F 72% 29.94 in 10.0 mi South 18.4 mph 24.2 mph N/A   Overcast
11:55 AM 57.2 °F 50.0 °F 77% 29.93 in 9.0 mi South 18.4 mph 25.3 mph N/A   Mostly Cloudy
12:35 PM 57.2 °F 48.2 °F 72% 29.91 in 9.0 mi South 20.7 mph 24.2 mph N/A   Overcast
12:55 PM 57.2 °F 50.0 °F 77% 29.90 in 9.0 mi South 17.3 mph - N/A   Overcast
1:15 PM 55.4 °F 50.0 °F 82% 29.89 in 9.0 mi South 17.3 mph 24.2 mph N/A   Overcast
1:35 PM 55.4 °F 50.0 °F 82% 29.88 in 9.0 mi South 17.3 mph 24.2 mph N/A   Overcast
1:55 PM 55.4 °F 48.2 °F 77% 29.87 in 9.0 mi South 18.4 mph 26.5 mph N/A   Overcast
2:15 PM 55.4 °F 48.2 °F 77% 29.87 in 9.0 mi South 17.3 mph 24.2 mph N/A   Overcast
2:35 PM 55.4 °F 48.2 °F 77% 29.86 in 9.0 mi South 19.6 mph 26.5 mph N/A   Overcast
2:55 PM 55.4 °F 48.2 °F 77% 29.86 in 9.0 mi South 17.3 mph 26.5 mph N/A   Overcast
3:15 PM 55.4 °F 48.2 °F 77% 29.85 in 8.0 mi South 18.4 mph 24.2 mph N/A   Overcast
3:35 PM 55.4 °F 48.2 °F 77% 29.86 in 8.0 mi South 13.8 mph - N/A   Overcast
3:55 PM 55.4 °F 48.2 °F 77% 29.86 in 8.0 mi South 17.3 mph 23.0 mph N/A   Overcast
4:15 PM 55.4 °F 48.2 °F 77% 29.85 in 9.0 mi South 18.4 mph - N/A   Overcast
4:55 PM 55.4 °F 48.2 °F 77% 29.85 in 7.0 mi South 20.7 mph 24.2 mph N/A   Overcast
5:15 PM 55.4 °F 48.2 °F 77% 29.85 in 10.0 mi South 20.7 mph 26.5 mph N/A   Overcast
5:35 PM 55.4 °F 48.2 °F 77% 29.85 in 10.0 mi South 19.6 mph 27.6 mph N/A   Overcast
5:55 PM 55.4 °F 48.2 °F 77% 29.85 in 10.0 mi South 19.6 mph 28.8 mph N/A   Overcast
6:35 PM 55.4 °F 48.2 °F 77% 29.85 in 10.0 mi South 13.8 mph 21.9 mph N/A   Overcast
7:15 PM 55.4 °F 48.2 °F 77% 29.85 in 10.0 mi SSE 13.8 mph 23.0 mph N/A   Overcast
7:35 PM 55.4 °F 50.0 °F 82% 29.85 in 5.0 mi SSE 10.4 mph 23.0 mph N/A   Haze
7:55 PM 55.4 °F 50.0 °F 82% 29.85 in 8.0 mi SSE 9.2 mph - N/A   Overcast
8:15 PM 55.4 °F 50.0 °F 82% 29.86 in 7.0 mi South 9.2 mph - N/A   Overcast
8:35 PM 55.4 °F 50.0 °F 82% 29.86 in 8.0 mi South 12.7 mph 18.4 mph N/A   Overcast
8:55 PM 55.4 °F 50.0 °F 82% 29.86 in 10.0 mi SE 13.8 mph - N/A   Overcast
9:15 PM 55.4 °F 50.0 °F 82% 29.86 in 10.0 mi SSE 13.8 mph - N/A   Overcast
9:35 PM 55.4 °F 50.0 °F 82% 29.86 in 10.0 mi SSE 16.1 mph - N/A   Overcast
9:55 PM 53.6 °F 51.8 °F 94% 29.86 in 8.0 mi South 15.0 mph - N/A   Overcast
10:15 PM 53.6 °F 51.8 °F 94% 29.86 in 10.0 mi South 12.7 mph - N/A   Mostly Cloudy
10:35 PM 53.6 °F 50.0 °F 88% 29.85 in 10.0 mi South 15.0 mph - N/A   Mostly Cloudy
10:55 PM 53.6 °F 50.0 °F 88% 29.85 in 9.0 mi SSE 11.5 mph - N/A   Mostly Cloudy
11:15 PM 53.6 °F 50.0 °F 88% 29.85 in 9.0 mi SSE 13.8 mph - N/A   Mostly Cloudy
11:35 PM 53.6 °F 50.0 °F 88% 29.85 in 9.0 mi SSE 15.0 mph 21.9 mph N/A   Overcast
11:55 PM 53.6 °F 50.0 °F 88% 29.85 in 9.0 mi SSE 15.0 mph - N/A   Overcast